Content
SEND FEEDBACK

Daily
Averages
Monthly
Summary
Canada

BIBLE HILL, NOVA SCOTIA


Home > North America > Canada > Nova Scotia
Elevation: 131 feet     Latitude: 45 22N     Longitude: 063 16W

WEATHER
 
SELECT A DAY
Number of Records: 97,444;   Date Range: 6/19/04 - 9/17/14
 
SHARE

PRINT THIS DATA

[ ← Previous Day ]
WEATHER ALMANAC - JANUARY 10, 2013
[ Next Day → ]
[ °C ]   °F
Weather ElementAverageHighLow
Temperature33.2 °F35 °F (2:00 am)31.3 °F (3:00 pm)
Dewpoint28.2 °F33.3 °F (2:00 am)23.2 °F (11:00 pm)
Humidity81.5 %96 % (7:00 am)60 % (8:00 pm)
Barometer29.83 in30.15 in (11:00 pm)29.63 in (5:00 am)
Wind Speed12.9 mph25.3 mph (11:00 pm)
Wind Gust43.7 mph (11:00 pm)
Weather ElementAverage
Wind DirectionWNW (294.8 °)

Weather ElementTotal
Precipitation0.18 in
Heating Degree Days31.9 (Base 65)
Averaged from 27 records on January 10, 2013
WEATHER CONDITIONS BREAKOUT
WIND DIRECTION BREAKOUT
WEATHER BY HOUR - JANUARY 10, 2013
[ °C ]   °F
Local TimeTemperatureDewpointHumidityBarometerVisibilityWind DirectionWind SpeedGust SpeedPrecipitationEventsConditions
1:00 AM33.8 °F31.6 °F92 %29.79 inSSE (150°)6.9 mph0.02 in
2:00 AM35.0 °F33.0 °F91 %29.73 inSSE (150°)5.8 mph
2:00 AM34.5 °F33.3 °F95 %29.73 inSSE (150°)5.8 mph0.11 in
3:00 AM34.2 °F31.3 °F89 %29.69 inWNW (300°)2.3 mph0.04 in
4:00 AM33.8 °F31.5 °F91 %29.65 inWest (270°)2.3 mph0.01 in
5:00 AM33.4 °F31.6 °F93 %29.63 inWest (270°)3.5 mph
6:00 AM33.6 °F31.3 °F91 %29.63 inWest (270°)10.4 mph
7:00 AM33.1 °F32.0 °F96 %29.64 inWest (270°)6.9 mph
8:00 AM34.0 °F31.0 °F86 %29.66 inWNW (290°)9.2 mph
8:00 AM34.2 °F31.5 °F90 %29.66 inWNW (290°)9.2 mph
9:00 AM33.4 °F30.4 °F89 %29.69 inWNW (290°)10.4 mph
10:00 AM32.9 °F29.3 °F87 %29.73 inNW (310°)11.5 mph21.9 mph
11:00 AM31.6 °F28.6 °F88 %29.75 inNW (310°)16.1 mph24.2 mph
12:00 PM31.8 °F27.0 °F82 %29.76 inNW (320°)18.4 mph28.8 mph
1:00 PM31.6 °F26.1 °F80 %29.79 inWNW (300°)16.1 mph26.5 mph
2:00 PM32.0 °F26.0 °F69 %29.83 inNW (320°)13.8 mph
2:00 PM31.6 °F25.7 °F79 %29.83 inNW (320°)13.8 mph24.2 mph
3:00 PM31.3 °F24.4 °F76 %29.87 inNW (320°)13.8 mph21.9 mph
4:00 PM33.1 °F25.0 °F72 %29.91 inNNW (330°)16.1 mph27.6 mph
5:00 PM33.6 °F26.1 °F74 %29.94 inNNW (340°)17.3 mph27.6 mph
6:00 PM34.0 °F26.8 °F75 %29.99 inNNW (340°)12.7 mph23.0 mph
7:00 PM34.0 °F26.1 °F73 %30.02 inNW (320°)15.0 mph27.6 mph
8:00 PM34.0 °F25.0 °F60 %30.04 inNNW (340°)19.6 mph
8:00 PM33.8 °F25.3 °F71 %30.04 inNNW (340°)19.6 mph31.1 mph
9:00 PM33.6 °F24.6 °F70 %30.07 inNNW (340°)23.0 mph35.7 mph
10:00 PM33.1 °F24.1 °F70 %30.12 inNorth (350°)24.2 mph34.5 mph
11:00 PM31.6 °F23.2 °F71 %30.15 inNorth (360°)25.3 mph43.7 mph
Hourly data recorded from CZDB, located miles away from Bible Hill, Nova Scotia







STORIES FROM OUR PARTNERS